Time,TemperatureF,DewpointF,PressureIn,WindDirection,WindDirectionDegrees,WindSpeedMPH,WindSpeedGustMPH,Humidity,HourlyPrecipIn,Conditions,Clouds,dailyrainin,SolarRadiationWatts/m^2,SoftwareType,DateUTC
2013-10-12 00:02:00,48.0,45.0,-100.00,NE,37,0.0,4.0,90,0.00,,,0.00,0.000000,,2013-10-12 07:02:00,
2013-10-12 00:12:00,48.0,45.0,-100.00,NE,37,0.0,4.0,90,0.00,,,0.00,0.000000,,2013-10-12 07:12:00,
2013-10-12 00:21:00,48.0,45.0,-100.00,NE,37,0.0,4.0,90,0.00,,,0.00,0.000000,,2013-10-12 07:21:00,
2013-10-12 00:32:00,48.0,45.0,-100.00,NE,37,0.0,4.0,90,0.00,,,0.00,0.000000,,2013-10-12 07:32:00,
2013-10-12 00:52:00,47.0,45.0,-100.00,East,81,0.0,4.0,92,0.00,,,0.00,0.000000,,2013-10-12 07:52:00,
2013-10-12 01:02:00,47.0,45.0,-100.00,East,81,0.0,4.0,92,0.00,,,0.00,0.000000,,2013-10-12 08:02:00,
2013-10-12 01:12:00,47.0,45.0,-100.00,East,81,0.0,4.0,92,0.00,,,0.00,0.000000,,2013-10-12 08:12:00,
2013-10-12 01:22:00,47.0,45.0,-100.00,East,81,0.0,4.0,92,0.00,,,0.00,0.000000,,2013-10-12 08:22:00,
2013-10-12 01:32:00,47.0,45.0,-100.00,East,81,0.0,4.0,92,0.00,,,0.00,0.000000,,2013-10-12 08:32:00,
2013-10-12 01:33:00,47.0,45.0,-100.00,East,100,0.0,3.0,94,0.00,,,0.00,0.000000,,2013-10-12 08:33:00,
2013-10-12 01:52:00,47.0,45.0,-100.00,East,100,0.0,3.0,94,0.00,,,0.00,0.000000,,2013-10-12 08:52:00,
2013-10-12 02:02:00,47.0,45.0,-100.00,East,100,0.0,3.0,94,0.00,,,0.00,0.000000,,2013-10-12 09:02:00,
2013-10-12 02:11:00,47.0,45.0,-100.00,East,100,0.0,3.0,94,0.00,,,0.00,0.000000,,2013-10-12 09:11:00,
2013-10-12 02:21:00,47.0,45.0,-100.00,East,100,0.0,3.0,94,0.00,,,0.00,0.000000,,2013-10-12 09:21:00,
2013-10-12 02:54:00,47.0,46.0,-100.00,North,351,0.0,3.0,96,0.02,,,0.02,0.000000,,2013-10-12 09:54:00,
2013-10-12 03:03:00,47.0,46.0,-100.00,North,351,0.0,3.0,96,0.02,,,0.02,0.000000,,2013-10-12 10:03:00,
2013-10-12 03:12:00,47.0,46.0,-100.00,North,351,0.0,3.0,96,0.02,,,0.02,0.000000,,2013-10-12 10:12:00,
2013-10-12 03:23:00,47.0,46.0,-100.00,North,351,0.0,3.0,96,0.02,,,0.02,0.000000,,2013-10-12 10:23:00,
2013-10-12 03:32:00,47.0,46.0,-100.00,North,351,0.0,3.0,96,0.02,,,0.02,0.000000,,2013-10-12 10:32:00,
2013-10-12 03:33:00,46.0,45.0,-100.00,ENE,61,0.0,2.0,97,0.02,,,0.04,0.000000,,2013-10-12 10:33:00,
2013-10-12 03:52:00,46.0,45.0,-100.00,ENE,61,0.0,2.0,97,0.02,,,0.04,0.000000,,2013-10-12 10:52:00,
2013-10-12 04:02:00,46.0,45.0,-100.00,ENE,61,0.0,2.0,97,0.02,,,0.04,0.000000,,2013-10-12 11:02:00,
2013-10-12 04:12:00,46.0,45.0,-100.00,ENE,61,0.0,2.0,97,0.02,,,0.04,0.000000,,2013-10-12 11:12:00,
2013-10-12 04:22:00,46.0,45.0,-100.00,ENE,61,0.0,2.0,97,0.02,,,0.04,0.000000,,2013-10-12 11:22:00,
2013-10-12 04:52:00,46.0,45.0,-100.00,NNE,30,0.0,2.0,97,0.00,,,0.04,0.000000,,2013-10-12 11:52:00,
2013-10-12 05:01:00,46.0,45.0,-100.00,NNE,30,0.0,2.0,97,0.00,,,0.04,0.000000,,2013-10-12 12:01:00,
2013-10-12 05:11:00,46.0,45.0,-100.00,NNE,30,0.0,2.0,97,0.00,,,0.04,0.000000,,2013-10-12 12:11:00,
2013-10-12 05:22:00,46.0,45.0,-100.00,NNE,30,0.0,2.0,97,0.00,,,0.04,0.000000,,2013-10-12 12:22:00,
2013-10-12 05:32:00,46.0,45.0,-100.00,NNE,30,0.0,2.0,97,0.00,,,0.04,0.000000,,2013-10-12 12:32:00,
2013-10-12 05:52:00,45.0,44.0,-100.00,NNW,341,0.0,2.0,97,0.01,,,0.05,0.000000,,2013-10-12 12:52:00,
2013-10-12 06:02:00,45.0,44.0,-100.00,NNW,341,0.0,2.0,97,0.01,,,0.05,0.000000,,2013-10-12 13:02:00,
2013-10-12 06:11:00,45.0,44.0,-100.00,NNW,341,0.0,2.0,97,0.01,,,0.05,0.000000,,2013-10-12 13:11:00,
2013-10-12 06:21:00,45.0,44.0,-100.00,NNW,341,0.0,2.0,97,0.01,,,0.05,0.000000,,2013-10-12 13:21:00,
2013-10-12 06:31:00,45.0,44.0,-100.00,NNW,341,0.0,2.0,97,0.01,,,0.05,0.000000,,2013-10-12 13:31:00,
2013-10-12 06:52:00,45.0,44.0,-100.00,NNW,341,0.0,0.0,98,0.00,,,0.05,0.000000,,2013-10-12 13:52:00,
2013-10-12 07:02:00,45.0,44.0,-100.00,NNW,341,0.0,0.0,98,0.00,,,0.05,0.000000,,2013-10-12 14:02:00,
2013-10-12 07:12:00,45.0,44.0,-100.00,NNW,341,0.0,0.0,98,0.00,,,0.05,0.000000,,2013-10-12 14:12:00,
2013-10-12 07:21:00,45.0,44.0,-100.00,NNW,341,0.0,0.0,98,0.00,,,0.05,0.000000,,2013-10-12 14:21:00,
2013-10-12 07:32:00,45.0,44.0,-100.00,NNW,341,0.0,0.0,98,0.00,,,0.05,0.000000,,2013-10-12 14:32:00,
2013-10-12 07:33:00,44.0,43.0,-100.00,NNE,24,0.0,2.0,98,0.00,,,0.05,1.000000,,2013-10-12 14:33:00,
2013-10-12 07:52:00,44.0,43.0,-100.00,NNE,24,0.0,2.0,98,0.00,,,0.05,1.000000,,2013-10-12 14:52:00,
2013-10-12 08:02:00,44.0,43.0,-100.00,NNE,24,0.0,2.0,98,0.00,,,0.05,1.000000,,2013-10-12 15:02:00,
2013-10-12 08:11:00,44.0,43.0,-100.00,NNE,24,0.0,2.0,98,0.00,,,0.05,1.000000,,2013-10-12 15:11:00,
2013-10-12 08:22:00,44.0,43.0,-100.00,NNE,24,0.0,2.0,98,0.00,,,0.05,1.000000,,2013-10-12 15:22:00,
2013-10-12 08:33:00,43.0,42.0,-100.00,NNW,346,0.0,1.0,98,0.00,,,0.05,21.000000,,2013-10-12 15:33:00,
2013-10-12 08:54:00,43.0,42.0,-100.00,NNW,346,0.0,1.0,98,0.00,,,0.05,21.000000,,2013-10-12 15:54:00,
2013-10-12 09:03:00,43.0,42.0,-100.00,NNW,346,0.0,1.0,98,0.00,,,0.05,21.000000,,2013-10-12 16:03:00,
2013-10-12 09:13:00,43.0,42.0,-100.00,NNW,346,0.0,1.0,98,0.00,,,0.05,21.000000,,2013-10-12 16:13:00,
2013-10-12 09:23:00,43.0,42.0,-100.00,NNW,346,0.0,1.0,98,0.00,,,0.05,21.000000,,2013-10-12 16:23:00,
2013-10-12 09:33:00,48.0,47.0,-100.00,ESE,115,0.0,3.0,97,0.00,,,0.05,141.000000,,2013-10-12 16:33:00,
2013-10-12 09:53:00,48.0,47.0,-100.00,ESE,115,0.0,3.0,97,0.00,,,0.05,141.000000,,2013-10-12 16:53:00,
2013-10-12 10:03:00,48.0,47.0,-100.00,ESE,115,0.0,3.0,97,0.00,,,0.05,141.000000,,2013-10-12 17:03:00,
2013-10-12 10:13:00,48.0,47.0,-100.00,ESE,115,0.0,3.0,97,0.00,,,0.05,141.000000,,2013-10-12 17:13:00,
2013-10-12 10:23:00,48.0,47.0,-100.00,ESE,115,0.0,3.0,97,0.00,,,0.05,141.000000,,2013-10-12 17:23:00,
2013-10-12 10:53:00,53.0,48.0,-100.00,South,181,2.0,4.0,83,0.00,,,0.05,322.000000,,2013-10-12 17:53:00,
2013-10-12 11:02:00,53.0,48.0,-100.00,South,181,2.0,4.0,83,0.00,,,0.05,322.000000,,2013-10-12 18:02:00,
2013-10-12 11:12:00,53.0,48.0,-100.00,South,181,2.0,4.0,83,0.00,,,0.05,322.000000,,2013-10-12 18:12:00,
2013-10-12 11:22:00,53.0,48.0,-100.00,South,181,2.0,4.0,83,0.00,,,0.05,322.000000,,2013-10-12 18:22:00,
2013-10-12 11:32:00,53.0,48.0,-100.00,South,181,2.0,4.0,83,0.00,,,0.05,322.000000,,2013-10-12 18:32:00,
2013-10-12 11:52:00,55.0,49.0,-100.00,West,262,1.0,6.0,79,0.00,,,0.05,430.000000,,2013-10-12 18:52:00,
2013-10-12 12:01:00,55.0,49.0,-100.00,West,262,1.0,6.0,79,0.00,,,0.05,430.000000,,2013-10-12 19:01:00,
2013-10-12 12:11:00,55.0,49.0,-100.00,West,262,1.0,6.0,79,0.00,,,0.05,430.000000,,2013-10-12 19:11:00,
2013-10-12 12:22:00,55.0,49.0,-100.00,West,262,1.0,6.0,79,0.00,,,0.05,430.000000,,2013-10-12 19:22:00,
2013-10-12 12:32:00,55.0,49.0,-100.00,West,262,1.0,6.0,79,0.00,,,0.05,430.000000,,2013-10-12 19:32:00,
2013-10-12 12:52:00,59.0,46.0,-100.00,West,269,1.0,5.0,62,0.00,,,0.05,522.000000,,2013-10-12 19:52:00,
2013-10-12 13:03:00,59.0,46.0,-100.00,West,269,1.0,5.0,62,0.00,,,0.05,522.000000,,2013-10-12 20:03:00,
2013-10-12 13:12:00,59.0,46.0,-100.00,West,269,1.0,5.0,62,0.00,,,0.05,522.000000,,2013-10-12 20:12:00,
2013-10-12 13:22:00,59.0,46.0,-100.00,West,269,1.0,5.0,62,0.00,,,0.05,522.000000,,2013-10-12 20:22:00,
2013-10-12 13:31:00,59.0,46.0,-100.00,West,269,1.0,5.0,62,0.00,,,0.05,522.000000,,2013-10-12 20:31:00,
2013-10-12 13:33:00,60.0,45.0,-100.00,SSW,193,3.0,7.0,58,0.00,,,0.05,583.000000,,2013-10-12 20:33:00,
2013-10-12 13:52:00,60.0,45.0,-100.00,SSW,193,3.0,7.0,58,0.00,,,0.05,583.000000,,2013-10-12 20:52:00,
2013-10-12 14:02:00,60.0,45.0,-100.00,SSW,193,3.0,7.0,58,0.00,,,0.05,583.000000,,2013-10-12 21:02:00,
2013-10-12 14:11:00,60.0,45.0,-100.00,SSW,193,3.0,7.0,58,0.00,,,0.05,583.000000,,2013-10-12 21:11:00,
2013-10-12 14:22:00,60.0,45.0,-100.00,SSW,193,3.0,7.0,58,0.00,,,0.05,583.000000,,2013-10-12 21:22:00,
2013-10-12 14:33:00,58.0,45.0,-100.00,West,264,3.0,7.0,63,0.00,,,0.05,339.000000,,2013-10-12 21:33:00,
2013-10-12 14:54:00,58.0,45.0,-100.00,West,264,3.0,7.0,63,0.00,,,0.05,339.000000,,2013-10-12 21:54:00,
2013-10-12 15:04:00,58.0,45.0,-100.00,West,264,3.0,7.0,63,0.00,,,0.05,339.000000,,2013-10-12 22:04:00,
2013-10-12 15:13:00,58.0,45.0,-100.00,West,264,3.0,7.0,63,0.00,,,0.05,339.000000,,2013-10-12 22:13:00,
2013-10-12 15:24:00,58.0,45.0,-100.00,West,264,3.0,7.0,63,0.00,,,0.05,339.000000,,2013-10-12 22:24:00,
2013-10-12 15:33:00,55.0,44.0,-100.00,West,265,3.0,12.0,66,0.00,,,0.05,121.000000,,2013-10-12 22:33:00,
2013-10-12 15:54:00,55.0,44.0,-100.00,West,265,3.0,12.0,66,0.00,,,0.05,121.000000,,2013-10-12 22:54:00,
2013-10-12 16:02:00,55.0,44.0,-100.00,West,265,3.0,12.0,66,0.00,,,0.05,121.000000,,2013-10-12 23:02:00,
2013-10-12 16:12:00,55.0,44.0,-100.00,West,265,3.0,12.0,66,0.00,,,0.05,121.000000,,2013-10-12 23:12:00,
2013-10-12 16:22:00,55.0,44.0,-100.00,West,265,3.0,12.0,66,0.00,,,0.05,121.000000,,2013-10-12 23:22:00,
2013-10-12 16:52:00,54.0,44.0,-100.00,West,278,0.0,5.0,70,0.00,,,0.05,53.000000,,2013-10-12 23:52:00,
2013-10-12 17:01:00,54.0,44.0,-100.00,West,278,0.0,5.0,70,0.00,,,0.05,53.000000,,2013-10-13 00:01:00,
2013-10-12 17:11:00,54.0,44.0,-100.00,West,278,0.0,5.0,70,0.00,,,0.05,53.000000,,2013-10-13 00:11:00,
2013-10-12 17:21:00,54.0,44.0,-100.00,West,278,0.0,5.0,70,0.00,,,0.05,53.000000,,2013-10-13 00:21:00,
2013-10-12 17:32:00,54.0,44.0,-100.00,West,278,0.0,5.0,70,0.00,,,0.05,53.000000,,2013-10-13 00:32:00,
2013-10-12 17:52:00,53.0,45.0,-100.00,SW,235,0.0,2.0,73,0.00,,,0.05,45.000000,,2013-10-13 00:52:00,
2013-10-12 18:01:00,53.0,45.0,-100.00,SW,235,0.0,2.0,73,0.00,,,0.05,45.000000,,2013-10-13 01:01:00,
2013-10-12 18:12:00,53.0,45.0,-100.00,SW,235,0.0,2.0,73,0.00,,,0.05,45.000000,,2013-10-13 01:12:00,
2013-10-12 18:21:00,53.0,45.0,-100.00,SW,235,0.0,2.0,73,0.00,,,0.05,45.000000,,2013-10-13 01:21:00,
2013-10-12 18:32:00,53.0,45.0,-100.00,SW,235,0.0,2.0,73,0.00,,,0.05,45.000000,,2013-10-13 01:32:00,
2013-10-12 18:52:00,50.0,46.0,-100.00,SSE,149,0.0,2.0,87,0.00,,,0.05,19.000000,,2013-10-13 01:52:00,
2013-10-12 19:02:00,50.0,46.0,-100.00,SSE,149,0.0,2.0,87,0.00,,,0.05,19.000000,,2013-10-13 02:02:00,
2013-10-12 19:11:00,50.0,46.0,-100.00,SSE,149,0.0,2.0,87,0.00,,,0.05,19.000000,,2013-10-13 02:11:00,
2013-10-12 19:22:00,50.0,46.0,-100.00,SSE,149,0.0,2.0,87,0.00,,,0.05,19.000000,,2013-10-13 02:22:00,
2013-10-12 19:32:00,50.0,46.0,-100.00,SSE,149,0.0,2.0,87,0.00,,,0.05,19.000000,,2013-10-13 02:32:00,
2013-10-12 19:33:00,46.0,44.0,-100.00,ESE,121,0.0,2.0,94,0.00,,,0.05,1.000000,,2013-10-13 02:33:00,
2013-10-12 19:52:00,46.0,44.0,-100.00,ESE,121,0.0,2.0,94,0.00,,,0.05,1.000000,,2013-10-13 02:52:00,
2013-10-12 20:02:00,46.0,44.0,-100.00,ESE,121,0.0,2.0,94,0.00,,,0.05,1.000000,,2013-10-13 03:02:00,
2013-10-12 20:11:00,46.0,44.0,-100.00,ESE,121,0.0,2.0,94,0.00,,,0.05,1.000000,,2013-10-13 03:11:00,
2013-10-12 20:22:00,46.0,44.0,-100.00,ESE,121,0.0,2.0,94,0.00,,,0.05,1.000000,,2013-10-13 03:22:00,
2013-10-12 20:33:00,46.0,44.0,-100.00,NE,42,2.0,6.0,93,0.00,,,0.05,0.000000,,2013-10-13 03:33:00,
2013-10-12 20:54:00,46.0,44.0,-100.00,NE,42,2.0,6.0,93,0.00,,,0.05,0.000000,,2013-10-13 03:54:00,
2013-10-12 21:02:00,-999.0,-99.9,-100.00,NE,42,2.0,6.0,-999,-99.99,,,-99.99,0.000000,,2013-10-13 04:02:00,
2013-10-12 21:13:00,46.0,44.0,-100.00,NE,42,2.0,6.0,93,0.00,,,0.05,0.000000,,2013-10-13 04:13:00,
2013-10-12 21:23:00,46.0,44.0,-100.00,NE,42,2.0,6.0,93,0.00,,,0.05,0.000000,,2013-10-13 04:23:00,
2013-10-12 21:33:00,44.0,43.0,-100.00,North,349,0.0,4.0,95,0.00,,,0.05,0.000000,,2013-10-13 04:33:00,
2013-10-12 21:54:00,44.0,43.0,-100.00,North,349,0.0,4.0,95,0.00,,,0.05,0.000000,,2013-10-13 04:54:00,
2013-10-12 22:03:00,44.0,43.0,-100.00,North,349,0.0,4.0,95,0.00,,,0.05,0.000000,,2013-10-13 05:03:00,
2013-10-12 22:12:00,44.0,43.0,-100.00,North,349,0.0,4.0,95,0.00,,,0.05,0.000000,,2013-10-13 05:12:00,
2013-10-12 22:23:00,44.0,43.0,-100.00,North,349,0.0,4.0,95,0.00,,,0.05,0.000000,,2013-10-13 05:23:00,
2013-10-12 22:52:00,42.0,41.0,-100.00,NNW,333,0.0,3.0,96,0.00,,,0.05,0.000000,,2013-10-13 05:52:00,
2013-10-12 23:02:00,42.0,41.0,-100.00,NNW,333,0.0,3.0,96,0.00,,,0.05,0.000000,,2013-10-13 06:02:00,
2013-10-12 23:12:00,42.0,41.0,-100.00,NNW,333,0.0,3.0,96,0.00,,,0.05,0.000000,,2013-10-13 06:12:00,
2013-10-12 23:21:00,42.0,41.0,-100.00,NNW,333,0.0,3.0,96,0.00,,,0.05,0.000000,,2013-10-13 06:21:00,
2013-10-12 23:32:00,42.0,41.0,-100.00,NNW,333,0.0,3.0,96,0.00,,,0.05,0.000000,,2013-10-13 06:32:00,
2013-10-12 23:52:00,41.0,40.0,-100.00,NNW,345,0.0,3.0,97,0.00,,,0.05,0.000000,,2013-10-13 06:52:00,